Location: Mercogliano
(40.9167°N, 14.7333°E)
Time: 14:40:02
(UTC+00:00)

Meteor 1-21 - Pass Details

Date: 18 September 2020
Orbit: 845 x 887 km, 81.2° (Epoch: 28 October)

Event Time Altitude Azimuth Distance (km) Brightness Sun altitude
Rises 18:15:04 0° 348° (NNW) 3,424 7.7 -14.0°
Reaches altitude 10° 18:17:30 10° 346° (NNW) 2,481 7.0 -14.4°
Maximum altitude 18:23:05 72° 264° (W) 891 4.5 -15.5°
Drops below altitude 10° 18:28:38 10° 180° (S) 2,459 6.5 -16.5°
Sets 18:31:02 0° 179° (S) 3,391 7.2 -16.9°
